Weather History for Ponca City, OK

Change the Weather History Date:

Wednesday, April 17, 2013

  Actual Average Record
Temperature  
Mean Temperature 50 °F -  
Max Temperature 55 °F 79 °F 99 °F (2006)
Min Temperature 46 °F 52 °F 26 °F (1956)
Degree Days  
Heating Degree Days 15    
Moisture  
Dew Point 48 °F    
Average Humidity 91    
Maximum Humidity 100    
Minimum Humidity 82    
Precipitation  
Precipitation 0.07 in - - ()
Sea Level Pressure  
Sea Level Pressure 29.74 in    
Wind  
Wind Speed 9 mph (North)    
Max Wind Speed 23 mph    
Max Gust Speed 28 mph    
Visibility 6 miles    
Events Fog , Rain , Thunderstorm    
Averages and records for this station are not official NWS values.
T = Trace of Precipitation, MM = Missing Value Source: NWS Daily Summary

Daily Weather History Graph

Daily Weather History Graph

Search for Another Location

Airport:

Trip Planner

Search our weather history database for the weather conditions in past years. The results will help you decide how hot, cold, wet, or windy it might be!

Date:

Astronomy

Apr. 17, 2013 Rise Set
Actual Time 6:51 AM CDT 8:04 PM CDT
Civil Twilight 6:24 AM CDT 8:31 PM CDT
Nautical Twilight 5:52 AM CDT 9:03 PM CDT
Astronomical Twilight 5:19 AM CDT 9:37 PM CDT
Moon 12:09 PM CDT (4/17) 1:40 AM CDT (4/17)
Length of Visible Light 14h 07m
Length of Day
13h 13m
Waxing Crescent, 42% of the Moon is Illuminated
Apr 17
Waxing Crescent
Apr 18
First Quarter
Apr 25
Full
May 2
Last Quarter
May 9
New

Hourly Weather History & Observations

Time (CDT) Temp. Windchill Dew Point Humidity Pressure Visibility Wind Dir Wind Speed Gust Speed Precip Events Conditions
12:53 AM 46.0 °F 41.9 °F 44.1 °F 93% 29.95 in 6.0 mi NE 8.1 mph - N/A   Overcast
1:53 AM 46.0 °F 39.6 °F 44.1 °F 93% 29.91 in 6.0 mi East 15.0 mph 19.6 mph N/A   Overcast
2:53 AM 46.9 °F - 45.0 °F 93% 29.91 in 7.0 mi ENE 5.8 mph - N/A   Overcast
3:53 AM 48.0 °F - 45.0 °F 89% 29.87 in 7.0 mi East 5.8 mph - N/A   Overcast
4:53 AM 48.9 °F - 46.0 °F 90% 29.86 in 7.0 mi Calm Calm - N/A   Overcast
5:43 AM 50.0 °F - 46.4 °F 87% 29.83 in 8.0 mi SE 8.1 mph - N/A   Overcast
5:50 AM 50.0 °F - 46.4 °F 87% 29.83 in 8.0 mi ESE 8.1 mph - N/A   Overcast
5:53 AM 50.0 °F - 46.9 °F 89% 29.83 in 8.0 mi SE 5.8 mph - N/A   Overcast
6:05 AM 51.8 °F - 46.4 °F 82% 29.83 in 8.0 mi ESE 5.8 mph - N/A   Overcast
6:53 AM 53.1 °F - 48.9 °F 86% 29.82 in 6.0 mi SE 5.8 mph - N/A   Overcast
7:06 AM 51.8 °F - 50.0 °F 94% 29.83 in 2.5 mi SE 5.8 mph - N/A   Overcast
7:43 AM 53.6 °F - 51.8 °F 94% 29.84 in 4.0 mi West 5.8 mph - N/A   Overcast
7:53 AM 53.1 °F - 51.1 °F 93% 29.83 in 4.0 mi Calm Calm - N/A   Overcast
8:17 AM 53.6 °F - 51.8 °F 94% 29.84 in 2.5 mi WNW 3.5 mph - N/A   Overcast
8:38 AM 51.8 °F - 48.2 °F 88% 29.85 in 1.8 mi WNW 9.2 mph - 0.00 in Rain Light Rain
8:46 AM 50.0 °F - 48.2 °F 94% 29.85 in 1.8 mi NW 4.6 mph - 0.00 in Rain Light Rain
8:53 AM 50.0 °F - 48.2 °F 94% 29.85 in 1.5 mi NW 5.8 mph - N/A   Overcast
9:53 AM 50.0 °F - 48.0 °F 93% 29.83 in 1.0 mi North 5.8 mph - N/A   Overcast
10:23 AM 50.0 °F - 48.2 °F 94% 29.83 in 0.8 mi North 4.6 mph - N/A   Overcast
10:53 AM 51.1 °F - 50.0 °F 96% 29.82 in 0.5 mi NNW 5.8 mph - N/A Fog Fog
11:53 AM 51.1 °F - 50.0 °F 96% 29.80 in 0.8 mi North 8.1 mph - N/A   Overcast
12:05 PM 51.8 °F - 50.0 °F 94% 29.80 in 1.0 mi North 9.2 mph - N/A   Overcast
12:53 PM 52.0 °F - 50.0 °F 93% 29.78 in 1.0 mi North 6.9 mph - N/A   Overcast
1:03 PM 51.8 °F - 50.0 °F 94% 29.77 in 0.8 mi North 9.2 mph - N/A   Overcast
1:53 PM 52.0 °F - 51.1 °F 97% 29.74 in 0.8 mi North 8.1 mph - N/A   Overcast
2:04 PM 51.8 °F - 50.0 °F 94% 29.73 in 1.0 mi North 6.9 mph - N/A   Overcast
2:14 PM 51.8 °F - 51.8 °F 100% 29.73 in 0.8 mi NNE 5.8 mph - N/A   Overcast
2:37 PM 53.6 °F - 51.8 °F 94% 29.71 in 1.2 mi NE 5.8 mph - N/A   Overcast
2:48 PM 53.6 °F - 53.6 °F 100% 29.70 in 2.5 mi NE 4.6 mph - N/A   Overcast
2:53 PM 54.0 °F - 52.0 °F 93% 29.69 in 3.0 mi NNE 5.8 mph - N/A   Overcast
3:53 PM 54.0 °F - 51.1 °F 90% 29.70 in 5.0 mi WNW 10.4 mph - N/A   Overcast
4:26 PM 51.8 °F - 48.2 °F 88% 29.70 in 2.0 mi NNW 10.4 mph - N/A   Overcast
4:35 PM 51.8 °F - 48.2 °F 88% 29.71 in 1.8 mi NW 9.2 mph - N/A   Overcast
4:45 PM 50.0 °F - 48.2 °F 94% 29.72 in 2.0 mi NW 10.4 mph - N/A   Overcast
4:53 PM 50.0 °F - 48.0 °F 93% 29.73 in 1.8 mi NW 11.5 mph 17.3 mph N/A   Overcast
5:04 PM 50.0 °F - 48.2 °F 94% 29.70 in 2.0 mi NNW 10.4 mph - N/A   Overcast
5:24 PM 51.8 °F - 48.2 °F 88% 29.67 in 4.0 mi North 13.8 mph - N/A   Overcast
5:53 PM 50.0 °F - 48.0 °F 93% 29.68 in 9.0 mi NNW 11.5 mph 19.6 mph N/A   Overcast
6:17 PM 51.8 °F - 48.2 °F 88% 29.69 in 10.0 mi NNW 11.5 mph - N/A   Overcast
6:53 PM 51.1 °F - 48.0 °F 89% 29.65 in 10.0 mi North 15.0 mph - N/A   Mostly Cloudy
7:45 PM 50.0 °F - 46.4 °F 87% 29.70 in 10.0 mi North 6.9 mph - N/A Thunderstorm Thunderstorm
7:53 PM 50.0 °F - 46.9 °F 89% 29.66 in 10.0 mi North 19.6 mph 24.2 mph 0.00 in Rain , Thunderstorm Light Thunderstorms and Rain
8:08 PM 50.0 °F - 46.4 °F 87% 29.62 in 10.0 mi NE 12.7 mph - 0.00 in Rain , Thunderstorm Light Thunderstorms and Rain
8:20 PM 50.0 °F - 46.4 °F 87% 29.63 in 10.0 mi NE 15.0 mph 19.6 mph 0.00 in   Scattered Clouds
8:44 PM 50.0 °F - 46.4 °F 87% 29.68 in 10.0 mi NNE 10.4 mph - 0.01 in   Mostly Cloudy
8:53 PM 50.0 °F - 46.9 °F 89% 29.67 in 7.0 mi NE 9.2 mph - 0.02 in Rain Rain
9:17 PM 48.2 °F - 46.4 °F 93% 29.57 in 10.0 mi ENE 21.9 mph 27.6 mph 0.03 in Rain Light Rain
9:24 PM 50.0 °F - 46.4 °F 87% 29.57 in 8.0 mi NNE 17.3 mph 27.6 mph 0.04 in Rain , Thunderstorm Rain
9:37 PM 50.0 °F - 46.4 °F 87% 29.63 in 10.0 mi NNW 12.7 mph 21.9 mph 0.05 in Rain , Thunderstorm Light Rain
9:53 PM 48.9 °F - 46.9 °F 93% 29.65 in 10.0 mi North 10.4 mph - 0.05 in Rain , Thunderstorm Light Rain
10:11 PM 48.2 °F - 46.4 °F 93% 29.61 in 10.0 mi North 12.7 mph - 0.00 in   Mostly Cloudy
10:18 PM 48.2 °F - 46.4 °F 93% 29.62 in 10.0 mi North 16.1 mph 20.7 mph 0.00 in   Mostly Cloudy
10:25 PM 48.2 °F - 46.4 °F 93% 29.61 in 10.0 mi North 15.0 mph - 0.00 in   Scattered Clouds
10:53 PM 46.9 °F - 45.0 °F 93% 29.61 in 10.0 mi North 17.3 mph 21.9 mph 0.00 in   Mostly Cloudy
11:36 PM 46.4 °F 38.3 °F 42.8 °F 87% 29.63 in 10.0 mi North 23.0 mph 26.5 mph N/A Thunderstorm Thunderstorm
11:53 PM 46.0 °F 39.3 °F 43.0 °F 89% 29.63 in 10.0 mi North 16.1 mph - N/A Thunderstorm Overcast